Fort Nelson Airport
CYYE : now visible

Airfield :











YOU CAN JOIN US ON...

 
LOGIN :

Register | Disclaimer

   EN    FR    IT 

 









Legend :    VFR   Marginal VFR   IFR   Intensive IFR   Very Intensive IFR
Visi :
Ceiling :
>= 8 km
>= 3000ft
5 to 8 km
1000 to 3000 ft
1500m to 5 km
500 to 1000 ft
800 to 1500m
200 to 500 ft
< 800m
< 200 ft
Symbols :   Thunderstorms  Fog  Heavy snow  Heavy precipitations  Wind > 20 kt






- Airport Elevation : 1253 ft
- IATA code : YYE


CYYE - Fort Nelson

CURRENT METAR :
  • 182100Z 13009KT 30SM FEW040 10/M08 A3062 RMK SC1 SLP392

EXPIRED METARs :
  • 182000Z 08005KT 060V140 30SM FEW030 09/M06 A3064 RMK SC2 SLP397
  • 181900Z 11003KT 020V140 30SM FEW030 08/M01 A3066 RMK SC2 SLP404

TAF TAF CYYE
Valid from the 18 at 19:00 until the 19 at 07:00 UTC


181839Z 1819/1907 VRB03KT P6SM FEW030 RMK NXT FCST BY 190100Z
CZEG FIR / North America



MET'MAP, your aeronautical weather chart ! - Copyright ORBIFLY December 2007 - Disclaimer

ORBIFLY MET'MAP TEAM :

Programming & Development : Alexandra Zaïnal
Concept & original design : Baudouin d'Aumeries
Assistance for programming : Marc-Olivier Méhu
Technical & hardware support : Manuel Goepfert

Contact : metmap@orbifly.com




SOURCES & CREDITS :

   NOAA       Earth
Advisory